Location: Br�znic
(45.9167°N, 22.6500°E)
Time: 07:47:20
(UTC+00:00)

Cosmos 1777 Rocket - Pass Details

Date: 03 March 2021
Orbit: 759 x 775 km, 74.0° (Epoch: 10 April)

Event Time Altitude Azimuth Distance (km) Brightness Sun altitude
Rises 18:28:54 0° 337° (NNW) 3,248 7.8 -23.2°
Reaches altitude 10° 18:31:18 10° 336° (NNW) 2,314 7.0 -23.6°
Maximum altitude 18:36:32 77° 252° (WSW) 789 4.0 -24.5°
Enters shadow 18:38:03 47° 176° (S) 1,007 4.4 -24.8°
